KA5FVT Weather Reports


time (UTC)temp
C
wind
direction
speed
KPH
gust
KPH
rain 1hr
cm
rain 24hr
cm
rain mn
cm
humidity
%
barometer
mb
20260506105926 24 205 0.0 0.0 0.00 0.00 0.00 91 1008.1
20260506105427 24 205 0.0 0.0 0.00 0.00 0.00 91 1008.0
20260506104927 24 205 0.0 0.0 0.00 0.00 0.00 91 1007.9
20260506104427 24 205 0.0 0.0 0.00 0.00 0.00 91 1008.0
20260506103927 24 205 0.0 0.0 0.00 0.00 0.00 91 1008.0
20260506103429 24 205 0.0 0.0 0.00 0.00 0.00 90 1008.0
20260506102926 24 205 0.0 0.0 0.00 0.00 0.00 90 1008.0
20260506102426 24 205 0.0 0.0 0.00 0.00 0.00 90 1007.9
20260506101927 24 205 0.0 0.0 0.00 0.00 0.00 90 1008.0
20260506101427 24 205 0.0 1.6 0.00 0.00 0.00 90 1008.0
20260506100927 24 205 0.0 0.0 0.00 0.00 0.00 90 1008.0
20260506100426 24 205 0.0 0.0 0.00 0.00 0.00 90 1007.9
20260506095926 24 205 0.0 0.0 0.00 0.00 0.00 90 1007.9
20260506095426 24 205 0.0 0.0 0.00 0.00 0.00 90 1007.9
20260506094929 24 205 0.0 0.0 0.00 0.00 0.00 89 1007.8
20260506094429 24 205 0.0 0.0 0.00 0.00 0.00 89 1007.6
20260506093927 24 205 0.0 0.0 0.00 0.00 0.00 89 1007.5
20260506093427 25 205 0.0 1.6 0.00 0.00 0.00 89 1007.5
20260506092929 25 205 0.0 0.0 0.00 0.00 0.00 89 1007.4
20260506092427 25 205 0.0 1.6 0.00 0.00 0.00 89 1007.6
20260506091926 25 205 0.0 1.6 0.00 0.00 0.00 89 1007.6
20260506091427 25 205 0.0 1.6 0.00 0.00 0.00 89 1007.5
20260506090926 25 205 1.6 3.2 0.00 0.00 0.00 89 1007.7
20260506090429 25 206 0.0 1.6 0.00 0.00 0.00 89 1007.8
20260506085927 25 206 0.0 3.2 0.00 0.00 0.00 89 1007.7
20260506085430 25 206 0.0 0.0 0.00 0.00 0.00 89 1007.8
20260506084927 25 206 0.0 1.6 0.00 0.00 0.00 89 1007.9
20260506084426 25 206 0.0 1.6 0.00 0.00 0.00 89 1007.6
20260506083927 25 206 0.0 1.6 0.00 0.00 0.00 88 1007.8
20260506083427 25 206 0.0 3.2 0.00 0.00 0.00 88 1007.8
20260506082927 25 206 0.0 1.6 0.00 0.00 0.00 88 1007.9
20260506082427 25 206 0.0 3.2 0.00 0.00 0.00 88 1007.9
20260506081927 25 206 0.0 0.0 0.00 0.00 0.00 88 1008.0
20260506081430 25 206 0.0 1.6 0.00 0.00 0.00 88 1008.1
20260506080926 25 206 0.0 1.6 0.00 0.00 0.00 88 1008.1
20260506080427 25 206 0.0 0.0 0.00 0.00 0.00 88 1008.1
20260506073426 25 206 0.0 1.6 0.00 0.00 0.00 88 1008.6
20260506072926 25 206 0.0 1.6 0.00 0.00 0.00 88 1008.7
20260506072429 25 206 0.0 0.0 0.00 0.00 0.00 88 1008.7
20260506071927 25 206 0.0 1.6 0.00 0.00 0.00 88 1008.7
20260506071427 25 206 0.0 3.2 0.00 0.00 0.00 88 1008.8
20260506070926 25 206 0.0 1.6 0.00 0.00 0.00 88 1008.8
20260506070426 25 206 0.0 3.2 0.00 0.00 0.00 88 1008.8
20260506062427 25 206 0.0 1.6 0.00 0.00 0.00 88 1008.8
20260506061926 25 206 0.0 1.6 0.00 0.00 0.00 88 1008.9
20260506061426 25 206 0.0 0.0 0.00 0.00 0.00 88 1008.9
20260506060926 25 206 0.0 0.0 0.00 0.00 0.00 88 1008.9
20260506060427 25 206 0.0 0.0 0.00 0.00 0.00 87 1008.9
20260506050930 25 206 0.0 1.6 0.00 0.00 0.00 87 1009.1
20260506050427 25 207 0.0 1.6 0.00 0.00 0.00 86 1009.0
20260506044926 25 163 1.6 3.2 0.00 0.00 0.00 85 1008.7
20260506044426 25 165 1.6 3.2 0.00 0.00 0.00 85 1008.9
20260506043927 25 165 1.6 3.2 0.00 0.00 0.00 85 1009.0
20260506043427 25 164 0.0 1.6 0.00 0.00 0.00 85 1009.1
20260506042926 25 164 0.0 1.6 0.00 0.00 0.00 85 1009.1
20260506042427 26 164 0.0 1.6 0.00 0.00 0.00 84 1009.0
20260506041927 26 164 0.0 1.6 0.00 0.00 0.00 84 1008.8
20260506041426 26 164 0.0 1.6 0.00 0.00 0.00 84 1008.9
20260506040929 26 164 0.0 3.2 0.00 0.00 0.00 84 1009.0
20260506040426 26 163 0.0 0.0 0.00 0.00 0.00 84 1008.9
20260506035927 26 163 0.0 0.0 0.00 0.00 0.00 83 1008.8
20260506035426 26 163 0.0 3.2 0.00 0.00 0.00 83 1008.7
20260506034930 26 157 0.0 1.6 0.00 0.00 0.00 83 1008.6
20260506034427 26 157 0.0 6.4 0.00 0.00 0.00 83 1008.5
20260506033926 26 185 1.6 3.2 0.00 0.00 0.00 83 1008.6
20260506033426 26 185 0.0 1.6 0.00 0.00 0.00 83 1008.6
20260506032926 26 185 1.6 1.6 0.00 0.00 0.00 83 1008.5
20260506032427 26 185 0.0 1.6 0.00 0.00 0.00 83 1008.4
20260506031927 26 185 0.0 1.6 0.00 0.00 0.00 83 1008.3
20260506031426 26 185 0.0 1.6 0.00 0.00 0.00 83 1008.1
20260506030927 26 185 0.0 1.6 0.00 0.00 0.00 83 1008.0
20260506030427 26 185 0.0 1.6 0.00 0.00 0.00 82 1007.9
20260506025927 26 185 0.0 1.6 0.00 0.00 0.00 82 1007.9
20260506025426 26 185 0.0 3.2 0.00 0.00 0.00 82 1007.8
20260506024930 26 185 1.6 3.2 0.00 0.00 0.00 82 1007.8
20260506024426 26 186 0.0 3.2 0.00 0.00 0.00 82 1007.7
20260506023926 26 187 0.0 3.2 0.00 0.00 0.00 82 1007.6
20260506023430 26 184 0.0 3.2 0.00 0.00 0.00 81 1007.4
20260506022927 26 184 0.0 1.6 0.00 0.00 0.00 81 1007.5
20260506022427 26 184 0.0 4.8 0.00 0.00 0.00 81 1007.5
20260506021929 26 184 1.6 3.2 0.00 0.00 0.00 81 1007.5
20260506021430 26 219 3.2 3.2 0.00 0.00 0.00 81 1007.5
20260506020926 26 219 0.0 1.6 0.00 0.00 0.00 80 1007.3
20260506020427 26 219 1.6 3.2 0.00 0.00 0.00 80 1007.3
20260506015927 26 219 1.6 3.2 0.00 0.00 0.00 80 1007.2
20260506015428 26 219 1.6 3.2 0.00 0.00 0.00 80 1007.3
20260506014926 26 219 0.0 3.2 0.00 0.00 0.00 80 1007.2
20260506014429 26 219 0.0 3.2 0.00 0.00 0.00 80 1007.1
20260506013930 26 229 1.6 3.2 0.00 0.00 0.00 79 1007.1
20260506013426 26 234 0.0 3.2 0.00 0.00 0.00 79 1007.0
20260506012927 26 248 1.6 3.2 0.00 0.00 0.00 79 1006.9
20260506012427 26 223 0.0 1.6 0.00 0.00 0.00 79 1006.8
20260506011927 26 223 1.6 1.6 0.00 0.00 0.00 79 1006.7
20260506011427 26 223 0.0 3.2 0.00 0.00 0.00 79 1006.6
20260506010926 26 223 0.0 3.2 0.00 0.00 0.00 78 1006.5
20260506010426 27 223 3.2 3.2 0.00 0.00 0.00 78 1006.5
20260506005930 27 224 0.0 3.2 0.00 0.00 0.00 78 1006.6
20260506005426 27 224 1.6 1.6 0.00 0.00 0.00 78 1006.5
20260506004926 27 224 0.0 3.2 0.00 0.00 0.00 78 1006.4
20260506004427 27 224 0.0 1.6 0.00 0.00 0.00 78 1006.4
20260506003927 27 224 1.6 3.2 0.00 0.00 0.00 78 1006.5
20260506003426 27 225 0.0 1.6 0.00 0.00 0.00 78 1006.5
20260506002926 27 225 1.6 1.6 0.00 0.00 0.00 78 1006.4
20260506002426 27 225 0.0 0.0 0.00 0.00 0.00 77 1006.4
20260506001927 27 225 0.0 1.6 0.00 0.00 0.00 77 1006.3
20260506001426 27 225 0.0 1.6 0.00 0.00 0.00 76 1006.2
20260506000930 27 225 1.6 1.6 0.00 0.00 0.00 76 1006.2
20260506000427 27 225 0.0 1.6 0.00 0.00 0.00 76 1006.3
20260505235926 27 225 1.6 1.6 0.00 0.00 0.00 77 1006.2
20260505235426 27 225 0.0 1.6 0.00 0.00 0.00 77 1006.2
20260505234926 27 225 0.0 1.6 0.00 0.00 0.00 76 1006.2
20260505234427 27 225 1.6 1.6 0.00 0.00 0.00 76 1006.0
20260505233927 27 225 0.0 3.2 0.00 0.00 0.00 76 1006.0
20260505233427 27 225 0.0 3.2 0.00 0.00 0.00 75 1006.1
20260505232927 27 225 0.0 1.6 0.00 0.00 0.00 76 1006.2
20260505232426 27 225 0.0 3.2 0.00 0.00 0.00 75 1006.1
20260505231927 27 225 0.0 3.2 0.00 0.00 0.00 75 1006.2
20260505231426 27 226 0.0 3.2 0.00 0.00 0.00 75 1006.1
20260505230926 28 226 3.2 3.2 0.00 0.00 0.00 74 1006.2
20260505230427 28 227 1.6 3.2 0.00 0.00 0.00 75 1006.3
20260505225926 28 227 0.0 3.2 0.00 0.00 0.00 75 1006.3
20260505225427 28 227 0.0 3.2 0.00 0.00 0.00 75 1006.2
20260505224926 28 264 0.0 3.2 0.00 0.00 0.00 75 1006.2
20260505224426 28 269 0.0 3.2 0.00 0.00 0.00 74 1006.2
20260505223927 28 268 0.0 1.6 0.00 0.00 0.00 75 1006.1
20260505223427 28 268 1.6 4.8 0.00 0.00 0.00 75 1006.2
20260505222927 28 167 1.6 1.6 0.00 0.00 0.00 74 1006.3
20260505222427 28 167 0.0 3.2 0.00 0.00 0.00 75 1006.2
20260505221926 28 198 1.6 3.2 0.00 0.00 0.00 75 1006.3
20260505221427 28 196 0.0 3.2 0.00 0.00 0.00 75 1006.3
20260505220926 28 197 1.6 3.2 0.00 0.00 0.00 75 1006.2
20260505220426 28 194 1.6 1.6 0.00 0.00 0.00 75 1006.4
20260505215926 28 194 0.0 3.2 0.00 0.00 0.00 76 1006.6
20260505215427 28 194 0.0 4.8 0.00 0.00 0.00 75 1006.6
20260505214927 28 228 1.6 3.2 0.00 0.00 0.00 75 1006.6
20260505214429 28 228 1.6 3.2 0.00 0.00 0.00 75 1006.7
20260505213929 28 259 1.6 3.2 0.00 0.00 0.00 75 1006.8
20260505213430 28 263 0.0 3.2 0.00 0.00 0.00 74 1006.8
20260505212930 28 213 1.6 3.2 0.00 0.00 0.00 74 1006.9
20260505212426 28 281 1.6 3.2 0.00 0.00 0.00 75 1006.9
20260505211927 28 281 1.6 8.0 0.00 0.00 0.00 74 1006.9
20260505211426 28 9 3.2 3.2 0.00 0.00 0.00 74 1007.1
20260505210926 28 182 1.6 1.6 0.00 0.00 0.00 74 1007.1
20260505210426 28 182 1.6 3.2 0.00 0.00 0.00 74 1007.1
20260505205926 28 182 0.0 3.2 0.00 0.00 0.00 75 1007.1
20260505205427 28 182 0.0 3.2 0.00 0.00 0.00 74 1007.1
20260505204927 28 182 1.6 3.2 0.00 0.00 0.00 74 1007.1
20260505204429 28 182 1.6 1.6 0.00 0.00 0.00 75 1007.2
20260505203926 28 182 0.0 3.2 0.00 0.00 0.00 75 1007.3
20260505203426 28 283 0.0 6.4 0.00 0.00 0.00 75 1007.2
20260505202926 28 227 1.6 3.2 0.00 0.00 0.00 74 1007.4
20260505202427 28 217 1.6 3.2 0.00 0.00 0.00 74 1007.5
20260505201926 28 217 1.6 3.2 0.00 0.00 0.00 75 1007.6
20260505201427 28 218 0.0 3.2 0.00 0.00 0.00 75 1007.7
20260505200927 28 257 0.0 3.2 0.00 0.00 0.00 76 1007.8
20260505200426 28 112 1.6 6.4 0.00 0.00 0.00 75 1007.8
20260505195929 28 167 0.0 6.4 0.00 0.00 0.00 75 1007.9
20260505195426 28 167 1.6 3.2 0.00 0.00 0.00 75 1007.9
20260505194926 28 148 1.6 3.2 0.00 0.00 0.00 76 1008.0
20260505194427 28 293 0.0 3.2 0.00 0.00 0.00 77 1008.1
20260505193927 28 293 0.0 9.7 0.00 0.00 0.00 75 1008.0
20260505193427 28 186 1.6 3.2 0.00 0.00 0.00 76 1008.1
20260505192926 28 148 0.0 1.6 0.00 0.00 0.00 77 1008.3
20260505192429 28 148 0.0 3.2 0.00 0.00 0.00 77 1008.3
20260505191927 28 128 1.6 3.2 0.00 0.00 0.00 77 1008.2
20260505191430 27 172 0.0 3.2 0.00 0.00 0.00 77 1008.2
20260505190926 27 173 1.6 1.6 0.00 0.00 0.00 77 1008.3
20260505190426 27 170 0.0 3.2 0.00 0.00 0.00 75 1008.3
20260505185926 27 170 0.0 6.4 0.00 0.00 0.00 75 1008.3
20260505185426 27 268 0.0 4.8 0.00 0.00 0.00 77 1008.4
20260505184926 27 289 3.2 3.2 0.00 0.00 0.00 78 1008.5
20260505184427 27 185 1.6 3.2 0.00 0.00 0.00 77 1008.5
20260505183927 27 184 0.0 4.8 0.00 0.00 0.00 77 1008.5
20260505183427 27 175 1.6 6.4 0.00 0.00 0.00 77 1008.6
20260505182926 27 184 1.6 6.4 0.00 0.00 0.00 78 1008.6
20260505182426 27 185 0.0 3.2 0.00 0.00 0.00 79 1008.7
20260505181926 27 175 0.0 3.2 0.00 0.00 0.00 79 1008.8
20260505181426 27 176 1.6 6.4 0.00 0.00 0.00 79 1008.7
20260505180930 26 190 1.6 3.2 0.00 0.00 0.00 80 1008.7
20260505180426 26 185 1.6 3.2 0.00 0.00 0.00 80 1008.7
20260505175926 26 196 1.6 4.8 0.00 0.00 0.00 80 1008.9
20260505175427 26 215 0.0 3.2 0.00 0.00 0.00 79 1008.9
20260505174930 26 215 0.0 3.2 0.00 0.00 0.00 80 1008.8
20260505174430 26 215 1.6 4.8 0.00 0.00 0.00 80 1008.9
20260505173927 26 215 1.6 6.4 0.00 0.00 0.00 80 1009.0
20260505173427 26 192 0.0 1.6 0.00 0.00 0.00 81 1008.9
20260505172929 26 192 1.6 1.6 0.00 0.00 0.00 80 1009.0
20260505172427 26 192 0.0 1.6 0.00 0.00 0.00 81 1009.0
20260505171926 26 192 3.2 3.2 0.00 0.00 0.00 82 1009.0
20260505171426 26 355 0.0 6.4 0.00 0.00 0.00 83 1009.0
20260505170929 26 198 0.0 3.2 0.00 0.00 0.00 83 1009.1
20260505170427 25 182 0.0 3.2 0.00 0.00 0.00 84 1009.2
20260505165927 25 179 1.6 4.8 0.00 0.00 0.00 84 1009.3
20260505165427 25 61 3.2 4.8 0.00 0.00 0.00 84 1009.3
20260505164926 25 303 0.0 3.2 0.00 0.00 0.00 84 1009.3
20260505164426 25 303 1.6 3.2 0.00 0.00 0.00 84 1009.3
20260505163929 25 309 0.0 0.0 0.00 0.00 0.00 84 1009.2
20260505163427 25 309 0.0 1.6 0.00 0.00 0.00 84 1009.3
20260505162926 25 309 0.0 3.2 0.00 0.00 0.00 83 1009.2
20260505162428 25 251 0.0 3.2 0.00 0.00 0.00 84 1009.1
20260505161930 25 251 0.0 3.2 0.00 0.00 0.00 84 1009.2
20260505161427 25 251 0.0 3.2 0.00 0.00 0.00 84 1009.2
20260505160926 25 264 1.6 3.2 0.00 0.00 0.00 84 1009.1
20260505160427 25 237 1.6 3.2 0.00 0.00 0.00 84 1009.2
20260505152930 25 304 0.0 1.6 0.00 0.00 0.00 85 1009.0
20260505152426 25 304 1.6 3.2 0.00 0.00 0.00 85 1009.0
20260505151927 25 222 0.0 1.6 0.00 0.00 0.00 84 1008.9
20260505151429 25 222 0.0 1.6 0.00 0.00 0.00 84 1008.9
20260505150927 25 222 0.0 1.6 0.00 0.00 0.00 85 1008.9
20260505150426 25 222 0.0 1.6 0.00 0.00 0.00 85 1008.9
20260505140426 23 119 1.6 3.2 0.00 0.00 0.00 87 1008.4
20260505124926 22 88 1.6 1.6 0.00 0.00 0.00 90 1008.1
20260505124426 22 88 0.0 0.0 0.00 0.00 0.00 90 1008.1
20260505123927 22 88 0.0 0.0 0.00 0.00 0.00 90 1008.2
20260505123427 22 88 0.0 0.0 0.00 0.00 0.00 90 1008.4
20260505122926 22 88 0.0 0.0 0.00 0.00 0.00 90 1008.0
20260505122427 22 88 0.0 0.0 0.00 0.00 0.00 90 1008.1
20260505121926 22 88 0.0 0.0 0.00 0.00 0.00 90 1008.1
20260505121427 22 88 0.0 0.0 0.00 0.00 0.00 90 1008.1
20260505120926 22 88 0.0 0.0 0.00 0.00 0.00 90 1008.0
20260505120426 22 88 0.0 0.0 0.00 0.00 0.00 90 1007.9
20260505115930 22 88 0.0 0.0 0.00 0.00 0.00 90 1007.9
20260505115426 22 88 0.0 0.0 0.00 0.00 0.00 90 1007.8
20260505114929 22 88 0.0 0.0 0.00 0.00 0.00 90 1007.8
20260505114426 22 88 0.0 0.0 0.00 0.00 0.00 90 1007.9
20260505113926 22 88 0.0 0.0 0.00 0.00 0.00 90 1008.2
20260505113429 22 88 0.0 0.0 0.00 0.00 0.00 90 1008.3
20260505112926 22 88 0.0 0.0 0.00 0.00 0.00 90 1008.1
20260505112427 22 88 0.0 0.0 0.00 0.00 0.00 90 1007.9
20260505111926 22 88 0.0 0.0 0.00 0.00 0.00 90 1007.9
20260505111429 22 88 0.0 1.6 0.00 0.00 0.00 90 1007.9
20260505110927 22 88 0.0 1.6 0.00 0.00 0.00 90 1007.9
20260505110429 22 88 0.0 0.0 0.00 0.00 0.00 90 1007.8